Regional Weather Roundup
Issued by NWS

Home | Current Version | Previous Version | Text Only | Print | Product List | Glossary On
Versions: 1 2 3 4 5 6 7 8 9 10 11 12 13 14 15 16 17 18 19 20 21 22 23 24 25 26 27 28 29 30 31 32 33 34 35 36 37 38 39 40 41 42 43 44 45 46 47 48 49 50
000
ASUS43 KLMK 180802
RWRKY
KENTUCKY REGIONAL WEATHER ROUNDUP
NATIONAL WEATHER SERVICE LOUISVILLE KY
300 AM EST SAT NOV 18 2017

NOTE "FAIR" INDICATES FEW OR NO CLOUDS BELOW 12,000 FEET
WITH NO SIGNIFICANT WEATHER AND/OR OBSTRUCTIONS TO VISIBILITY.

KYZ001>023-026-027-061>063-070>075-180900-
WESTERN AND SOUTH CENTRAL KENTUCKY

CITY           SKY/WX    TMP DP  RH WIND       PRES   REMARKS
PADUCAH        CLOUDY    67  54  63 S15G28    29.66F
HENDERSON      MOCLDY    63  53  70 S16G24    29.66F
OWENSBORO      CLOUDY    61  50  67 S17       29.68F
HOPKINSVILLE   CLOUDY    64  53  67 S15G24    29.74F
BOWLING GREEN  CLOUDY    61  43  51 S23G31    29.79F
GLASGOW        NOT AVBL
$$

KYZ024-025-028>034-038-045-046-053-180900-
NORTH CENTRAL KENTUCKY

CITY           SKY/WX    TMP DP  RH WIND       PRES   REMARKS
LOUISVILLE/SDF CLOUDY    62  40  44 S20G30    29.71F
LOUISVILLE/LOU CLOUDY    61  41  47 S18G25    29.72F
FORT KNOX      CLOUDY    60  43  52 S16G26    29.71S
$$

KYZ035>037-039>044-047>052-055>060-089>105-180900-
NORTHEAST KENTUCKY

CITY           SKY/WX    TMP DP  RH WIND       PRES   REMARKS
LEXINGTON      CLOUDY    58  39  49 S17G32    29.75F
COVINGTON      LGT RAIN  53  44  71 S15G28    29.69F
FRANKFORT      RAIN      56  41  57 S18G30    29.74F
$$

KYZ054-064>069-076>088-106>120-180900-
SOUTHEAST KENTUCKY

CITY           SKY/WX    TMP DP  RH WIND       PRES   REMARKS
JACKSON        MOCLDY    55  33  43 VRB7      29.84F
LONDON         CLOUDY    56  36  47 S8        29.88S
SOMERSET       CLOUDY    57  37  47 S8        29.90R
MIDDLESBORO    CLOUDY    55  37  51 S8        29.96R
MONTICELLO     CLOUDY    59  39  47 VRB6      29.90S
$$





USA.gov is the U.S. government's official web portal to all federal, state and local government web resources and services.